This demonstration page uses our WeatherBlox Daily Observations layout. Learn more.

Left ArrowRight Arrow

Hourly Observations for April 30, 2017

Temp ( °F °C ) Dew Point ( °F °C ) Humidity (%) Winds ( mph kmh ) Pressure ( in mb ) Visibility ( mi km ) Precip ( " mm )
12:59 am 00:59 Clear 77 25 72 22.2 85 85 SW 9 15 30.13 1020 8 13 0.00 0.00
1:59 am 01:59 Clear 76 24.4 71 21.7 85 85 SW 6 9 30.14 1021 8 13 0.00 0.00
2:59 am 02:59 Clear 75 23.9 70 21.1 84 84 SW 8 13 30.12 1020 8 13 0.00 0.00
3:59 am 03:59 Clear 74 23.3 69 20.6 85 85 SSW 8 13 30.13 1020 8 13 0.00 0.00
4:59 am 04:59 Partly Cloudy 73 22.8 69 20.6 87 87 SW 8 13 30.14 1021 8 13 0.00 0.00
5:15 am 05:15 Mostly Cloudy 72 22.2 69 20.6 91 91 SW 5 7 30.15 1021 7 11 0.00 0.00
5:43 am 05:43 Mostly Cloudy 72 22.2 68 20 87 87 Calm 30.15 1021 7 11 0.00 0.00
5:59 am 05:59 Mostly Cloudy 72 22.2 68 20 87 87 SSW 3 6 30.16 1021 7 11 0.00 0.00
6:46 am 06:46 Mostly Cloudy with Mist and Fog 73 22.8 68 20 84 84 S 5 7 30.18 1022 6 10 0.00 0.00
6:59 am 06:59 Mostly Cloudy with Mist and Fog 73 22.8 68 20 84 84 S 3 6 30.17 1022 6 10 0.00 0.00
7:59 am 07:59 Mostly Cloudy 73 22.8 68 20 84 84 SW 8 13 30.19 1022 7 11 0.00 0.00
8:59 am 08:59 Mostly Cloudy 75 23.9 68 20 79 79 SW 12 19 30.20 1023 8 13 0.00 0.00
9:37 am 09:37 Mostly Cloudy 76 24.4 66 18.9 72 72 SW 14 22 30.21 1023 9 14 0.00 0.00
9:59 am 09:59 Partly Cloudy 78 25.6 67 19.4 69 69 SW 12 19 30.19 1022 9 14 0.00 0.00
10:59 am 10:59 Partly Cloudy 79 26.1 67 19.4 67 67 SW 12 19 30.17 1022 9 14 0.00 0.00
11:59 am 11:59 Mostly Cloudy 82 27.8 66 18.9 58 58 SSW 13 20 30.16 1021 10 16 0.00 0.00
12:59 pm 12:59 Partly Cloudy 85 29.4 65 18.3 51 51 SW 10 17 30.14 1021 10 16 0.00 0.00
1:59 pm 13:59 Partly Cloudy 86 30 64 17.8 48 48 SW 10 17 30.13 1020 10 16 0.00 0.00
2:59 pm 14:59 Partly Cloudy 87 30.6 63 17.2 45 45 SW 12 19 30.12 1020 10 16 0.00 0.00
3:59 pm 15:59 Partly Cloudy 85 29.4 64 17.8 50 50 SW 8 13 30.11 1020 9 14 0.00 0.00
4:59 pm 16:59 Mostly Cloudy 86 30 65 18.3 49 49 SW 9 15 30.10 1019 10 16 0.00 0.00
5:59 pm 17:59 Partly Cloudy 85 29.4 63 17.2 48 48 SW 13 20 30.09 1019 10 16 0.00 0.00
6:59 pm 18:59 Mostly Cloudy 83 28.3 64 17.8 53 53 SW 5 7 30.08 1019 10 16 0.00 0.00
8:59 pm 20:59 Partly Cloudy 82 27.8 65 18.3 56 56 SSW 9 15 30.09 1019 10 16 0.00 0.00
9:59 pm 21:59 Mostly Cloudy 80 26.7 66 18.9 62 62 SSW 7 11 30.10 1019 10 16 0.00 0.00
10:59 pm 22:59 Partly Cloudy 78 25.6 67 19.4 69 69 SSW 9 15 30.11 1020 10 16 0.00 0.00
11:59 pm 23:59 Mostly Clear 76 24.4 67 19.4 74 74 S 8 13 30.11 1020 9 14 0.00 0.00

Powered by AerisWeather